Home   Weather   Houston   Past weeks

Flag for USA Past Weather in Houston, Texas, USA — Yesterday and Last 2 Weeks

Now
94 °F

Broken clouds.


Feels Like: 102 °F
Forecast: 81 / 93 °F
Wind: 15 mph from Southwest

Location: Houston Hobby Airport

Current Time: Jul 23, 2017 at 1:58:29 pm

Latest Report: Jul 23, 2017 at 12:53 pm


Visibility: 10 mi

Pressure: 29.95 "Hg

Humidity: 49%

Dew Point: 72 °F

Location of HoustonLocation

Past Weather in Houston — Graph

°F

Houston Temperature Yesterday

Maximum temperature yesterday: 93 °F (at 3:53 pm)
Minimum temperature yesterday: 80 °F (at 4:53 am)
Average temperature yesterday: 86 °F

High & Low Weather Summary for the Past Weeks

 TemperatureHumidityPressure
High96 °F (Jul 8, 5:21 pm)91% (Jul 16, 3:53 am)30.15 "Hg (Jul 16, 3:53 am)
Low75 °F (Jul 9, 10:23 pm)43% (Jul 8, 1:53 pm)29.87 "Hg (Jul 16, 6:53 pm)
Average85 °F71%30.02 "Hg
* Reported Jul 8 11:53 am — Jul 23 11:53 am, Houston. Weather by CustomWeather, © 2017

Note: Actual official high and low records may vary slightly from our data, if they occured in-between our weather recording intervals... More about our weather records

Advertising

Houston Weather History for the Previous 24 Hours

Scroll right to see more
 ConditionsComfort  
Time TempWeatherWind HumidityBarometerVisibility
11:53 am
Sun, Jul 23
93 °FBroken clouds.9 mph52%29.97 "Hg10 mi
10:53 am91 °FBroken clouds.13 mph57%29.97 "Hg10 mi
9:53 am89 °FBroken clouds.13 mph65%29.96 "Hg10 mi
8:53 am86 °FBroken clouds.12 mph75%29.96 "Hg10 mi
7:53 am82 °FBroken clouds.3 mph82%29.95 "Hg10 mi
6:53 am81 °FScattered clouds.3 mph82%29.93 "Hg10 mi
5:53 am80 °FPassing clouds.3 mph85%29.92 "Hg10 mi
4:53 am80 °FPassing clouds.3 mph85%29.91 "Hg10 mi
3:53 am81 °FPassing clouds.No wind82%29.92 "Hg10 mi
2:53 am81 °FPassing clouds.5 mph82%29.94 "Hg10 mi
1:53 am82 °FPassing clouds.7 mph79%29.95 "Hg10 mi
12:53 am83 °FPassing clouds.7 mph77%29.95 "Hg10 mi
11:53 pm
Sat, Jul 22
82 °FPassing clouds.7 mph79%29.96 "Hg10 mi
10:53 pm83 °FPassing clouds.6 mph77%29.95 "Hg10 mi
9:53 pm84 °FPassing clouds.7 mph72%29.93 "Hg10 mi
8:53 pm85 °FPartly cloudy.9 mph70%29.92 "Hg10 mi
7:53 pm87 °FBroken clouds.6 mph65%29.91 "Hg10 mi
6:53 pm89 °FThunderstorms. Broken clouds.10 mph61%29.91 "Hg10 mi
5:53 pm90 °FThunderstorms. Broken clouds.12 mph57%29.91 "Hg10 mi
5:27 pm91 °FThunderstorms. Broken clouds.12 mph56%29.91 "Hg10 mi
4:53 pm92 °FBroken clouds.8 mph54%29.92 "Hg10 mi
3:53 pm93 °FBroken clouds.10 mph52%29.93 "Hg10 mi
2:53 pm92 °FBroken clouds.9 mph60%29.95 "Hg10 mi
1:53 pm88 °FBroken clouds.3 mph70%29.97 "Hg10 mi
Weather by CustomWeather, © 2017

See weather overviewHow to use our weather pages